Temperature
19 17 16 16 17 19 19 19 18 17 16 14 13 12 13 13 13 12 12 12 12 13 14 15 15 15 16 16 16 17 17 17 17 18 18 19 20 20 20 20 20 19 19 19
16 15 16 17 17 17 18 17 17 16 16 14 12 12 13 13 13 12 12 11 11 12 13 14 15 15 15 15 16 16 16 17 17 17 17 18 19 19 20 20 20 20 19 19
15 16 17 16 15 16 16 16 16 16 15 14 13 13 12 12 13 12 12 11 11 11 12 13 13 14 14 14 15 15 15 16 16 16 17 17 18 18 19 19 20 20 19 19
15 16 16 15 15 14 15 16 16 16 14 12 13 12 11 10 11 12 12 11 11 11 11 12 12 13 13 13 13 14 14 15 15 15 15 16 16 17 18 18 19 19 19 19
16 16 15 14 15 15 15 15 15 15 13 11 10 11 10 10 10 11 11 11 11 11 11 11 12 12 12 13 13 13 13 14 14 14 14 15 15 16 16 17 18 18 18 18
15 16 15 15 15 15 14 14 13 11 11 11 10 11 10 10 10 10 11 11 11 11 11 11 12 12 12 13 13 13 13 13 13 13 13 14 14 15 15 16 16 17 17 17
15 14 14 15 13 13 12 13 13 13 11 11 11 11 11 11 11 11 11 11 11 11 11 11 11 12 12 12 12 12 13 13 13 13 13 13 14 14 14 15 15 15 16 16
15 13 14 14 13 12 12 11 12 13 12 10 11 11 11 12 12 12 11 11 11 11 11 11 11 11 11 12 12 12 12 12 12 13 13 13 13 14 14 14 14 14 15 15
13 14 15 14 13 13 12 10 11 10 11 10 11 11 12 12 12 11 11 11 11 11 11 11 11 11 11 12 12 12 12 12 12 12 12 13 13 13 13 13 14 14 14 14
13 13 14 14 13 12 11 10 9 10 11 11 11 11 10 10 10 10 11 11 12 12 12 12 11 11 11 11 12 12 12 12 12 12 12 12 13 13 13 13 13 13 13 13
13 13 13 12 12 11 11 10 8 8 9 9 10 10 11 10 10 10 10 12 12 12 12 12 12 12 11 11 11 11 12 12 12 12 12 13 13 13 13 13 13 13 13 13
12 10 11 13 13 13 11 10 9 9 8 8 9 10 11 10 11 11 12 12 13 13 13 13 12 12 12 11 11 11 11 12 12 12 12 12 13 13 13 13 13 13 14 14
13 11 12 13 13 12 11 11 9 8 8 8 9 10 11 11 12 12 12 13 13 13 13 13 13 12 12 12 11 11 11 11 11 12 12 12 12 13 13 13 13 13 13 13
13 10 12 14 13 12 12 12 10 9 8 9 9 10 10 10 10 12 13 13 13 14 14 14 13 13 12 12 12 11 11 11 11 11 12 12 12 12 12 12 12 13 13 13
12 12 12 13 13 13 13 12 11 10 9 9 10 10 10 11 11 12 13 13 14 14 14 14 14 13 13 12 12 12 11 11 11 11 11 11 11 11 11 12 12 12 12 12
12 12 13 13 14 13 13 12 12 12 10 10 11 11 11 13 13 13 13 14 14 14 14 14 14 14 13 13 12 12 12 11 11 11 11 11 11 11 11 11 11 11 11 11
11 12 12 12 13 12 12 12 12 12 12 11 11 11 12 12 13 13 14 14 14 14 14 14 14 14 14 13 13 12 12 12 11 11 11 11 11 11 11 10 11 11 11 11
11 11 10 11 12 13 14 13 12 12 12 11 11 12 13 13 14 14 14 14 14 14 14 14 14 14 14 14 13 13 12 12 12 11 11 11 11 10 10 10 10 10 10 10
11 11 10 10 12 12 13 13 12 12 13 12 12 13 14 14 13 14 14 14 14 14 14 14 14 14 14 14 14 13 13 12 12 12 11 11 11 10 10 10 10 10 10 10
11 10 10 11 14 14 15 14 14 13 13 14 14 14 14 13 11 12 14 14 14 14 14 14 14 14 14 14 14 14 13 13 12 12 11 11 11 10 10 10 10 10 10 10
13 11 11 11 12 13 14 14 15 13 13 15 15 15 14 13 13 15 15 14 14 14 14 14 14 14 14 14 14 14 13 13 12 12 11 11 11 10 10 10 10 10 9 9
12 11 10 10 12 13 14 13 13 13 16 16 16 16 16 15 15 15 15 14 14 14 14 14 14 14 14 14 14 14 13 13 13 12 12 11 11 10 10 10 10 10 9 9
11 11 10 11 13 15 15 16 17 17 17 17 17 16 16 15 15 15 15 15 15 14 14 14 14 14 14 14 14 14 13 13 13 12 12 11 11 10 10 10 10 10 9 9
11 11 10 10 11 15 16 17 17 17 18 18 17 17 16 16 15 15 15 15 15 15 14 14 14 14 14 14 14 14 13 13 13 12 12 11 11 10 10 10 10 9 9 9
13 10 11 12 12 14 16 17 17 17 17 17 17 16 16 16 16 15 15 15 15 15 14 14 14 14 14 14 14 14 13 13 13 12 12 11 11 10 10 10 9 9 9 8
12 12 13 14 17 16 19 19 18 17 18 17 17 16 16 16 16 16 15 15 15 15 15 14 14 14 14 14 14 14 13 13 13 12 12 11 11 11 10 10 10 9 9 8
Wind_Speed
8 10 8 8 6 2 2 4 4 3 4 8 11 10 9 11 15 16 15 14 14 14 12 12 12 12 12 11 11 10 11 10 9 6 5 4 4 6 7 8 10 12 12 12
9 8 7 5 6 6 5 5 3 3 6 7 8 8 6 8 11 11 13 14 15 17 18 17 15 13 12 12 11 10 10 10 9 7 6 5 5 5 6 6 7 11 11 11
10 4 6 5 8 7 4 5 2 0 4 5 4 3 7 6 7 12 13 12 13 15 16 17 17 14 13 12 12 11 11 10 10 10 7 7 4 4 3 4 5 8 10 11
9 5 6 6 6 6 1 2 2 1 3 3 3 1 6 9 10 17 18 17 16 16 15 15 15 15 13 11 10 9 9 9 9 9 7 7 5 5 4 4 4 5 6 7
5 4 7 7 5 4 4 4 1 2 5 5 7 3 5 8 11 18 17 17 17 16 15 15 14 14 13 10 9 8 8 8 8 8 8 7 6 5 4 3 2 2 3 4
5 3 4 4 4 3 4 2 6 6 5 5 5 3 6 6 11 16 17 17 17 16 15 14 13 12 11 10 8 7 8 7 8 8 8 8 7 7 5 3 1 0 1 2
6 6 7 5 7 8 8 5 4 5 6 2 3 3 3 6 8 11 15 16 16 14 14 14 15 15 14 13 10 8 7 7 8 8 8 8 8 8 7 6 4 3 2 1
4 6 7 6 4 4 5 5 5 3 2 1 3 3 5 5 8 9 10 12 14 14 13 14 15 14 14 14 12 9 8 7 8 8 8 8 8 7 7 7 6 6 4 3
5 1 3 5 5 3 4 4 2 6 4 3 3 4 4 5 11 12 14 14 15 14 13 14 14 14 14 14 12 10 8 8 8 8 8 8 8 8 7 7 7 5 5 5
6 4 4 5 6 7 5 4 5 5 4 1 3 4 5 10 13 13 14 15 15 14 13 12 12 13 13 13 12 11 10 9 8 8 8 7 7 7 7 7 7 6 6 5
4 5 4 5 6 6 6 5 6 5 4 4 0 4 4 7 9 10 12 13 13 12 12 11 10 10 11 12 13 12 12 10 10 9 8 8 8 8 8 7 7 6 5 5
4 5 3 2 1 2 4 4 3 4 2 3 3 5 6 6 7 8 10 11 11 11 10 9 9 9 9 11 11 12 11 11 10 9 9 9 9 9 9 9 9 7 7 7
5 5 3 4 5 5 6 4 4 5 5 3 2 5 4 5 7 7 8 10 10 10 10 9 9 9 9 9 10 10 10 10 10 10 10 10 11 11 11 10 10 9 9 9
5 5 4 3 2 0 3 2 3 4 4 3 4 6 7 7 7 9 9 9 9 9 9 9 9 8 8 8 8 9 9 9 9 9 10 10 10 10 9 9 9 9 9 9
5 6 4 4 3 2 1 0 2 3 6 6 5 5 8 7 6 7 7 8 8 9 9 9 8 7 7 7 8 8 8 8 8 8 9 9 8 8 8 9 9 9 10 10
4 5 3 2 1 1 3 4 3 3 5 5 4 6 8 6 4 5 6 7 7 8 8 9 9 8 8 7 6 6 7 7 7 8 8 8 8 8 8 8 8 9 10 9
3 5 4 1 2 5 7 8 9 6 6 7 7 7 5 4 5 5 5 6 7 7 7 8 8 7 7 6 4 5 5 5 6 7 7 7 7 7 7 7 7 8 8 8
7 5 4 2 2 5 7 4 8 7 7 9 7 6 6 7 5 5 5 5 7 7 7 7 8 8 7 5 4 3 4 5 6 6 6 7 7 7 7 7 7 6 6 6
4 7 5 3 2 7 7 5 7 7 7 9 10 8 6 4 1 5 6 5 6 6 6 6 6 6 6 6 4 3 4 5 5 5 6 6 6 7 7 7 6 5 5 6
6 5 6 4 2 5 7 4 6 5 6 8 11 9 7 7 1 5 5 4 6 6 5 5 6 5 6 6 4 2 4 4 4 3 3 5 6 7 7 6 5 5 5 5
2 3 4 5 5 8 6 6 9 4 7 5 11 10 10 9 8 5 4 4 4 5 5 5 6 6 6 6 4 3 4 4 3 1 3 5 6 6 6 6 5 5 6 6
8 6 6 5 5 8 6 10 10 11 3 7 10 10 10 10 7 6 5 5 4 4 5 5 6 6 6 6 4 4 5 4 1 4 5 5 6 5 5 6 6 6 6 7
8 9 7 9 9 5 9 9 7 7 7 8 9 9 10 8 6 6 4 3 2 3 4 4 4 6 6 6 5 5 6 3 3 5 5 5 6 6 5 6 6 6 6 6
5 5 5 6 9 7 10 7 5 8 8 8 10 9 10 8 8 6 4 2 2 2 3 3 4 5 6 6 6 5 5 2 4 5 4 4 5 5 5 5 5 5 5 5
7 8 5 7 8 5 7 11 10 8 7 8 8 9 10 9 7 7 5 4 2 2 2 2 3 4 5 6 6 6 5 2 4 4 4 4 3 3 3 3 3 3 2 2
7 10 9 8 8 8 7 9 12 11 10 11 10 8 7 8 8 7 6 4 3 2 1 2 3 3 5 5 6 6 5 1 4 3 3 2 2 2 1 1 2 2 1 3
Wind_Direction
30 50 33 1 3 42 105 109 96 61 75 80 89 80 47 33 32 24 13 4 357 347 339 342 345 344 343 344 345 342 343 342 342 338 329 303 264 242 229 224 215 207 204 203
51 33 350 5 15 48 80 98 77 48 82 104 108 84 47 39 34 19 6 356 349 343 341 341 340 340 340 339 339 338 338 335 335 329 313 288 279 267 244 229 214 203 198 197
86 2 350 45 36 39 58 112 103 52 71 85 120 65 17 360 5 5 4 354 348 342 336 334 333 332 333 334 333 332 330 329 330 329 320 311 292 284 269 233 217 210 198 192
82 16 27 51 41 29 355 9 326 241 109 46 3 291 2 333 341 357 355 351 345 339 335 332 330 328 326 324 322 322 325 327 331 333 330 326 312 295 283 274 248 220 204 195
75 22 34 32 359 358 293 323 345 114 117 69 22 52 330 337 351 347 344 343 340 338 335 330 327 323 321 320 321 321 325 331 334 338 339 333 325 309 299 291 256 216 194 189
58 25 46 353 335 356 325 60 62 55 73 53 340 30 345 345 335 332 336 340 339 339 339 337 337 334 330 329 327 326 332 340 346 348 351 350 349 347 347 353 358 100 131 154
29 15 4 11 9 9 34 75 49 27 33 9 325 58 319 302 324 328 332 337 339 342 346 348 349 347 345 345 342 341 345 351 356 2 5 3 5 10 17 12 20 36 45 51
74 9 0 16 31 335 25 82 127 158 159 301 3 14 287 288 324 332 336 337 344 349 349 351 349 348 349 351 348 350 356 3 6 10 9 11 19 24 25 26 32 36 34 31
123 89 352 30 28 50 52 54 111 118 107 73 351 324 319 332 343 345 345 344 343 343 346 351 350 350 351 351 355 360 7 14 10 9 10 15 20 26 27 28 34 35 30 34
122 113 354 345 28 33 79 96 74 83 120 97 339 330 316 322 331 334 335 337 335 337 340 342 344 347 351 353 1 9 15 12 8 9 14 18 17 19 22 26 28 27 24 29
99 108 8 31 33 351 19 50 75 79 96 133 235 295 258 285 304 315 320 324 326 329 331 332 337 345 353 0 6 12 12 14 12 10 12 21 20 21 26 29 23 20 22 24
104 106 73 352 312 102 91 74 113 122 105 117 145 272 281 289 297 306 313 320 324 327 329 331 335 345 356 2 4 9 12 16 14 15 22 27 25 27 31 30 26 27 32 32
120 98 76 2 0 15 51 52 83 106 108 116 155 275 302 332 323 323 323 326 329 334 339 342 346 348 352 356 359 3 8 10 12 20 28 30 29 32 34 33 32 33 34 34
105 77 115 137 219 281 46 57 113 107 120 159 224 264 303 319 318 320 325 326 329 340 345 349 348 346 348 353 358 0 4 7 13 22 28 30 28 30 32 32 33 33 36 37
90 86 74 78 87 98 86 175 146 144 168 173 225 248 266 274 278 294 307 322 339 346 346 348 345 342 346 352 356 358 360 3 10 22 25 21 20 25 30 32 32 34 37 37
73 108 92 49 51 13 294 242 206 179 180 207 242 265 253 252 263 289 308 326 335 335 338 341 344 344 343 344 346 351 355 356 9 22 18 14 20 25 27 29 32 36 33 29
87 117 115 264 329 357 284 225 199 206 199 183 208 237 248 240 259 269 286 306 314 319 325 332 332 328 325 325 331 341 342 355 15 20 16 15 20 26 24 32 39 36 29 29
121 106 112 114 61 277 248 211 177 192 221 203 217 237 225 226 245 264 259 271 296 311 323 325 324 323 320 318 324 333 351 6 16 20 20 17 21 25 25 37 39 34 30 32
123 128 118 125 225 280 283 190 170 183 250 211 208 230 230 201 8 305 262 252 268 288 298 299 304 303 309 316 317 335 352 359 11 17 22 19 22 26 30 34 31 28 38 38
67 94 113 132 217 257 257 191 150 110 272 221 189 201 180 135 153 267 265 270 286 302 308 314 320 324 333 332 332 346 342 347 353 9 32 35 36 37 34 32 33 34 44 38
118 86 134 166 231 263 245 148 122 149 246 203 176 180 168 179 204 231 280 285 296 312 324 338 344 346 337 336 357 359 341 329 316 76 73 56 46 49 44 43 40 40 39 36
174 166 186 164 207 258 188 149 181 211 214 168 172 174 179 203 224 243 262 273 307 332 342 350 351 342 339 353 13 1 341 323 3 105 85 67 51 47 47 50 43 37 35 35
194 189 185 191 215 236 188 196 204 172 175 180 175 179 180 192 215 221 228 245 300 334 342 348 346 338 345 358 10 354 330 339 104 107 94 82 69 54 47 50 45 37 33 33
241 176 179 247 260 237 225 235 212 187 186 181 174 169 169 182 197 202 207 225 277 315 334 346 352 350 343 345 354 341 333 18 116 118 111 99 85 66 51 48 47 47 35 29
217 168 198 254 268 267 243 212 200 192 180 162 166 172 177 179 188 192 201 218 237 273 312 342 342 328 326 335 344 345 352 63 114 124 124 113 100 90 63 49 42 43 22 13
192 178 181 221 220 194 233 208 180 172 179 175 169 175 182 181 186 188 200 213 220 237 266 319 328 324 326 335 338 340 347 64 138 138 145 144 135 116 84 30 360 338 319 2
Height
1538 1546 1557 1556 1553 1551 1551 1556 1560 1560 1560 1566 1572 1575 1575 1572 1568 1566 1564 1561 1557 1555 1552 1548 1544 1541 1538 1534 1531 1528 1525 1522 1520 1518 1517 1517 1517 1518 1520 1521 1523 1525 1526 1528
1549 1560 1558 1555 1553 1553 1555 1561 1563 1563 1562 1568 1575 1576 1575 1573 1572 1571 1568 1563 1559 1553 1549 1545 1542 1539 1535 1532 1529 1526 1522 1519 1517 1515 1513 1512 1512 1512 1513 1514 1516 1519 1521 1523
1560 1564 1558 1558 1560 1560 1560 1564 1564 1564 1566 1569 1573 1577 1577 1574 1573 1571 1568 1564 1559 1555 1549 1544 1540 1537 1533 1529 1526 1523 1520 1517 1514 1512 1510 1508 1507 1506 1507 1508 1510 1512 1515 1517
1561 1562 1561 1562 1563 1564 1566 1562 1562 1563 1571 1581 1578 1584 1583 1578 1573 1569 1565 1561 1558 1553 1547 1542 1538 1534 1531 1527 1524 1521 1517 1514 1511 1509 1506 1505 1503 1502 1502 1503 1504 1506 1508 1511
1565 1564 1564 1565 1565 1564 1564 1562 1563 1564 1573 1583 1586 1587 1589 1581 1577 1571 1567 1562 1557 1552 1546 1541 1537 1533 1529 1525 1521 1518 1515 1512 1509 1506 1504 1502 1500 1499 1498 1498 1499 1500 1502 1504
1565 1564 1565 1566 1564 1563 1563 1563 1566 1573 1579 1593 1594 1593 1592 1587 1583 1575 1569 1563 1558 1552 1546 1541 1536 1531 1527 1522 1519 1516 1514 1510 1508 1505 1503 1501 1499 1497 1496 1495 1495 1496 1498 1500
1570 1569 1567 1566 1567 1565 1567 1572 1582 1584 1595 1598 1591 1592 1593 1585 1581 1577 1571 1565 1559 1553 1547 1541 1536 1531 1526 1521 1518 1515 1512 1509 1507 1505 1502 1500 1498 1497 1495 1494 1494 1495 1496 1497
1575 1581 1573 1570 1572 1573 1573 1577 1587 1590 1595 1599 1592 1594 1591 1583 1580 1576 1572 1566 1560 1554 1549 1544 1538 1533 1527 1522 1518 1515 1512 1509 1507 1505 1503 1501 1499 1497 1496 1495 1495 1495 1495 1495
1577 1580 1573 1572 1572 1572 1575 1581 1581 1591 1595 1600 1596 1591 1585 1581 1578 1575 1571 1566 1561 1556 1552 1546 1541 1535 1530 1524 1519 1516 1513 1511 1508 1506 1504 1503 1501 1499 1498 1497 1496 1496 1496 1495
1571 1580 1577 1575 1573 1575 1578 1581 1587 1592 1597 1600 1598 1595 1595 1586 1581 1576 1572 1568 1563 1559 1554 1550 1544 1539 1534 1528 1522 1518 1515 1513 1511 1509 1507 1505 1504 1503 1501 1500 1499 1498 1498 1497
1569 1579 1582 1579 1582 1584 1582 1585 1591 1599 1600 1605 1605 1602 1587 1586 1582 1579 1574 1570 1566 1561 1557 1553 1548 1543 1538 1532 1527 1523 1519 1516 1514 1512 1510 1509 1507 1506 1505 1504 1503 1502 1501 1500
1571 1581 1587 1583 1580 1580 1582 1586 1590 1597 1604 1603 1605 1603 1583 1583 1581 1578 1575 1571 1567 1563 1560 1555 1551 1546 1541 1536 1532 1528 1524 1521 1518 1516 1514 1512 1511 1510 1508 1507 1506 1505 1504 1503
1570 1580 1589 1588 1589 1585 1584 1587 1590 1595 1601 1604 1605 1601 1582 1581 1579 1577 1575 1572 1568 1565 1561 1558 1554 1549 1545 1541 1537 1533 1529 1526 1523 1521 1518 1516 1514 1512 1511 1509 1508 1507 1506 1505
1568 1582 1588 1590 1590 1586 1586 1587 1589 1594 1602 1601 1599 1594 1585 1582 1580 1577 1575 1573 1570 1567 1563 1560 1556 1553 1549 1545 1542 1538 1535 1531 1529 1526 1523 1520 1518 1516 1514 1512 1511 1509 1508 1506
1569 1583 1584 1584 1583 1584 1585 1585 1587 1590 1594 1598 1592 1590 1585 1581 1579 1578 1576 1574 1571 1568 1565 1562 1559 1555 1552 1549 1545 1542 1539 1536 1533 1530 1526 1524 1522 1520 1518 1516 1514 1512 1510 1508
1571 1581 1583 1585 1583 1584 1585 1583 1584 1585 1588 1589 1588 1587 1578 1578 1577 1577 1576 1574 1572 1569 1567 1564 1561 1558 1554 1551 1548 1545 1542 1539 1536 1533 1530 1528 1525 1523 1521 1519 1517 1515 1513 1512
1576 1581 1588 1592 1586 1587 1588 1579 1580 1580 1580 1583 1585 1581 1576 1576 1576 1576 1575 1574 1572 1570 1568 1565 1562 1559 1556 1553 1551 1548 1545 1542 1539 1536 1533 1531 1528 1525 1523 1522 1520 1518 1517 1515
1575 1582 1590 1593 1591 1591 1577 1568 1570 1574 1574 1575 1574 1574 1574 1574 1575 1574 1574 1573 1572 1570 1568 1566 1563 1560 1557 1555 1552 1550 1547 1544 1542 1539 1536 1533 1530 1528 1526 1524 1523 1521 1520 1518
1571 1579 1590 1595 1594 1587 1571 1566 1568 1572 1571 1567 1569 1570 1571 1573 1574 1573 1573 1572 1572 1570 1569 1566 1564 1561 1558 1555 1553 1551 1548 1546 1544 1541 1538 1536 1533 1530 1529 1527 1526 1524 1522 1520
1574 1576 1587 1592 1588 1584 1567 1560 1562 1568 1570 1560 1562 1566 1569 1571 1576 1573 1571 1571 1571 1570 1568 1566 1564 1561 1558 1556 1553 1551 1549 1547 1545 1543 1540 1538 1535 1533 1531 1530 1528 1526 1525 1522
1577 1582 1586 1589 1587 1576 1559 1558 1563 1576 1566 1555 1558 1562 1565 1568 1570 1570 1570 1570 1570 1569 1568 1566 1564 1561 1559 1556 1554 1551 1549 1547 1546 1544 1542 1540 1538 1535 1533 1532 1530 1528 1526 1524
1574 1581 1584 1587 1586 1575 1555 1557 1560 1557 1552 1552 1556 1559 1562 1565 1567 1568 1569 1569 1569 1568 1567 1566 1564 1561 1559 1556 1554 1552 1549 1548 1546 1545 1543 1542 1540 1538 1536 1534 1532 1530 1528 1526
1565 1564 1567 1567 1561 1548 1547 1546 1547 1549 1550 1551 1554 1558 1561 1563 1565 1567 1567 1568 1568 1568 1567 1565 1563 1561 1559 1557 1554 1552 1550 1549 1547 1546 1545 1543 1541 1540 1538 1537 1535 1532 1530 1528
1556 1554 1557 1556 1546 1542 1543 1543 1545 1547 1549 1550 1553 1556 1559 1561 1563 1565 1566 1567 1567 1567 1566 1565 1563 1561 1560 1557 1555 1553 1551 1549 1548 1547 1546 1544 1543 1542 1540 1539 1537 1535 1533 1530
1546 1550 1552 1549 1539 1537 1536 1537 1541 1544 1547 1550 1553 1555 1558 1560 1562 1563 1564 1565 1565 1565 1565 1564 1562 1561 1560 1558 1555 1553 1552 1550 1549 1548 1547 1546 1545 1543 1542 1541 1539 1537 1535 1533
1536 1538 1542 1540 1531 1531 1531 1531 1536 1540 1544 1547 1550 1553 1556 1558 1560 1561 1563 1563 1564 1564 1564 1563 1562 1561 1559 1558 1556 1554 1552 1551 1550 1549 1548 1547 1546 1545 1544 1542 1541 1539 1537 1535